Home > Weather > French Lick > Past weeks

Flag for U.S.A. Weather for the Past 2 Weeks in French Lick, Indiana, U.S.A.

Now
25 °F

Sunny.


Feels Like: 16 °F
Forecast: 10 / 22 °F
Wind: 8 mph from Northwest

Location: Huntingburg Airport

Current Time: Feb 13, 2016 at 4:41:52 PM

Latest Report: Feb 13, 2016 at 3:55 PM


Visibility: 10 mi

Pressure: 30.55 "Hg

Humidity: 36%

Dew point: 1 °F

Location of French LickLocation

Historic Weather in French Lick — Graph

°F

French Lick Temperature Yesterday

Maximum temperature yesterday: 32 °F (at 1:35 PM)
Minimum temperature yesterday: 23 °F (at 11:55 PM)
Average temperature yesterday: 28 °F

High & Low Weather Summary for the Past Weeks

 TemperatureHumidityPressure
High64 °F (Jan 30, 4:15 PM)88% (Feb 2, 8:15 PM)30.62 "Hg (Feb 2, 8:15 PM)
Low12 °F (Feb 10, 8:15 AM)36% (Feb 7, 4:15 PM)29.55 "Hg (Feb 2, 11:15 PM)
Average36 °F65%30.07 "Hg
* Reported Jan 29 3:15 PM — Feb 13 3:15 PM, French Lick, Weather by CustomWeather, © 2016

Note: Actual official high and low records may vary slightly from our data, if they occured in-between our weather recording intervals... More about our weather records

Advertising

French Lick Weather History for the Previous 24 Hours

 ConditionsComfort  
Time TempWeatherWind HumidityBarometerVisibility
3:15 PM
Sat, Feb 13
25 °FSunny.6 mph36%30.55 "Hg10 mi
2:55 PM23 °FSunny.8 mph39%30.55 "Hg10 mi
2:35 PM25 °FSunny.10 mph36%30.56 "Hg10 mi
2:15 PM23 °FSunny.13 mph39%30.57 "Hg10 mi
1:55 PM23 °FSunny.8 mph39%30.57 "Hg10 mi
1:35 PM21 °FSunny.8 mph42%30.59 "Hg10 mi
1:15 PM21 °FSunny.12 mph42%30.59 "Hg10 mi
12:55 PM21 °FSunny.7 mph42%30.60 "Hg10 mi
12:35 PM21 °FSunny.8 mph42%30.60 "Hg10 mi
12:15 PM21 °FSunny.9 mph42%30.61 "Hg10 mi
11:55 AM19 °FSunny.8 mph45%30.61 "Hg10 mi
11:35 AM19 °FSunny.8 mph49%30.62 "Hg10 mi
11:15 AM19 °FSunny.8 mph45%30.62 "Hg10 mi
10:55 AM18 °FSunny.9 mph49%30.62 "Hg10 mi
10:35 AM18 °FSunny.10 mph45%30.62 "Hg10 mi
10:15 AM18 °FSunny.8 mph49%30.62 "Hg10 mi
9:55 AM18 °FSunny.10 mph45%30.62 "Hg10 mi
9:35 AM16 °FSunny.12 mph48%30.62 "Hg10 mi
9:15 AM16 °FSunny.10 mph48%30.61 "Hg10 mi
8:55 AM14 °FSunny.12 mph52%30.61 "Hg10 mi
8:35 AM14 °FSunny.9 mph57%30.60 "Hg10 mi
8:15 AM12 °FSunny.9 mph67%30.59 "Hg10 mi
7:55 AM12 °FSunny.8 mph62%30.58 "Hg10 mi
7:35 AM12 °FClear.10 mph62%30.57 "Hg10 mi
7:15 AM12 °FClear.12 mph62%30.57 "Hg10 mi
6:55 AM14 °FClear.10 mph57%30.56 "Hg10 mi
6:35 AM14 °FClear.10 mph62%30.55 "Hg10 mi
6:15 AM14 °FClear.9 mph62%30.55 "Hg10 mi
5:55 AM14 °FClear.10 mph62%30.54 "Hg10 mi
5:35 AM16 °FClear.12 mph57%30.53 "Hg10 mi
5:15 AM16 °FClear.13 mph57%30.52 "Hg10 mi
4:55 AM16 °FClear.12 mph57%30.51 "Hg10 mi
4:35 AM16 °FClear.12 mph57%30.50 "Hg10 mi
4:15 AM16 °FClear.13 mph57%30.50 "Hg10 mi
3:55 AM16 °FClear.13 mph62%30.50 "Hg10 mi
3:15 AM18 °FClear.10 mph53%30.48 "Hg10 mi
2:55 AM18 °FClear.14 mph53%30.47 "Hg10 mi
2:35 AM18 °FClear.13 mph58%30.47 "Hg10 mi
2:15 AM18 °FClear.12 mph58%30.45 "Hg10 mi
1:55 AM19 °FClear.17 mph53%30.45 "Hg10 mi
1:35 AM19 °FClear.15 mph53%30.44 "Hg10 mi
1:15 AM19 °FClear.13 mph49%30.43 "Hg10 mi
12:55 AM19 °FClear.16 mph49%30.43 "Hg10 mi
12:35 AM21 °FClear.21 mph49%30.42 "Hg10 mi
12:15 AM21 °FClear.17 mph45%30.42 "Hg10 mi
11:55 PM
Fri, Feb 12
23 °FPassing clouds.18 mph54%30.40 "Hg10 mi
11:35 PM25 °FPassing clouds.16 mph50%30.40 "Hg10 mi
11:15 PM25 °FMostly cloudy.12 mph59%30.39 "Hg10 mi
10:55 PM25 °FOvercast.15 mph59%30.38 "Hg10 mi
10:35 PM25 °FPassing clouds.16 mph59%30.38 "Hg10 mi
10:15 PM25 °FPassing clouds.12 mph59%30.37 "Hg10 mi
9:35 PM25 °FPassing clouds.14 mph59%30.37 "Hg10 mi
9:15 PM25 °FPassing clouds.16 mph59%30.37 "Hg10 mi
8:35 PM27 °FOvercast.25 mph59%30.35 "Hg10 mi
7:55 PM27 °FOvercast.18 mph59%30.33 "Hg10 mi
7:35 PM28 °FOvercast.14 mph59%30.32 "Hg10 mi
6:55 PM28 °FOvercast.14 mph64%30.30 "Hg10 mi
6:15 PM28 °FOvercast.18 mph69%30.28 "Hg10 mi
5:55 PM28 °FOvercast.18 mph69%30.27 "Hg10 mi
5:35 PM30 °FMostly cloudy.16 mph64%30.26 "Hg10 mi
5:15 PM30 °FOvercast.18 mph64%30.25 "Hg10 mi
4:35 PM30 °FMostly cloudy.17 mph69%30.23 "Hg10 mi
Weather by CustomWeather, © 2016

See weather overviewHow to use our weather pages